GEFSSE_con_prob3kmehi_150.txt.gz
EHI
13 12 15 11 3 0 0 0 0 0 0 0 0 0 0 0 0 0 0 0 0 0 0 0 0 0 0 0 0 0 0 0 0 0 0 0 0 0 0 0 0 0 0
13 13 16 14 6 1 0 0 0 0 0 0 0 0 0 0 0 0 0 0 0 0 0 0 0 0 0 0 0 0 0 0 0 0 0 0 0 0 0 0 0 0 0
9 10 13 15 8 2 0 0 0 0 0 0 0 0 0 0 0 0 0 0 0 0 0 0 0 0 0 0 0 0 0 0 0 0 0 0 0 0 0 0 0 0 0
5 5 8 11 8 3 1 1 0 0 0 0 0 0 0 0 0 0 0 0 0 0 0 0 0 0 0 0 0 0 0 0 0 0 0 0 0 0 0 0 0 0 0
6 7 8 10 8 4 2 2 1 1 1 0 0 0 0 0 0 0 0 0 0 0 0 0 0 0 0 0 0 0 0 0 0 0 0 0 0 0 0 0 0 0 0
10 9 10 11 9 5 3 2 2 3 2 0 0 0 0 0 0 0 0 0 0 0 0 0 0 0 0 0 0 0 1 2 2 0 0 0 0 0 0 0 0 0 0
17 13 10 12 9 4 2 2 3 3 2 0 0 0 0 0 0 0 0 0 0 0 0 0 0 0 0 0 0 1 4 6 3 1 1 1 0 0 0 0 0 0 0
29 19 12 11 8 5 4 3 3 2 1 0 0 0 0 0 0 0 0 0 0 0 0 0 0 0 0 0 0 1 6 9 4 1 2 1 0 0 0 0 0 0 0
37 26 15 10 7 5 6 5 4 3 1 1 0 0 0 0 0 0 0 0 0 0 0 0 0 0 0 0 0 1 6 8 5 2 2 1 0 0 0 0 0 0 0
39 30 18 10 7 5 5 5 4 3 2 1 0 1 1 1 0 1 1 0 0 0 0 0 0 0 0 0 0 0 3 5 4 2 2 1 0 0 0 0 0 0 0
40 33 23 16 10 5 4 4 4 2 1 1 0 1 1 1 0 2 2 2 0 0 0 0 0 0 0 0 0 0 1 2 3 3 4 3 2 0 0 0 0 0 0
44 39 34 28 17 10 9 6 4 3 2 1 0 0 1 1 2 4 5 3 1 0 0 0 0 0 0 0 1 2 1 1 3 3 3 5 3 0 0 0 0 0 0
45 43 45 40 26 21 19 12 6 5 3 2 2 2 2 3 4 6 6 3 1 0 0 0 0 0 0 0 1 2 1 2 4 3 3 4 2 0 0 0 0 0 0
42 44 51 51 42 38 33 20 11 8 6 7 8 6 3 3 5 8 8 4 1 1 0 0 1 0 0 0 1 1 0 1 4 4 2 2 1 0 0 0 0 0 0
43 48 60 64 60 57 48 34 22 15 13 17 17 11 4 4 9 14 12 6 3 3 2 1 1 1 0 1 1 1 1 2 3 3 1 1 1 0 0 0 0 0 0
56 61 71 75 72 68 57 46 33 22 22 29 28 21 12 12 19 23 17 9 5 5 5 4 3 2 1 1 2 2 2 4 4 2 0 0 1 0 0 0 0 0 0
71 74 77 76 74 69 57 46 36 26 28 38 40 35 24 22 28 28 19 12 9 9 9 8 6 3 2 2 2 1 2 4 4 2 0 0 0 0 0 0 0 0 0
80 80 78 74 72 67 54 42 32 29 36 45 46 40 31 29 31 28 20 17 17 14 11 8 6 4 2 1 1 1 1 2 2 1 0 0 0 0 0 0 0 0 0
85 84 79 76 75 69 57 44 34 35 45 49 46 39 33 31 30 25 21 23 22 15 10 8 9 7 4 1 1 1 1 1 1 1 0 1 1 0 0 0 0 0 0
89 87 84 82 81 74 62 51 42 42 47 49 46 40 34 31 28 23 23 25 21 15 11 10 12 12 7 3 1 0 0 1 2 2 1 1 1 1 1 2 2 1 0
92 91 88 86 83 76 67 58 50 46 45 45 44 41 35 29 26 20 19 24 21 17 15 13 14 13 8 4 1 0 1 2 3 3 2 1 1 2 4 6 6 4 3
94 91 87 85 81 73 66 61 55 48 44 41 43 43 35 28 24 18 17 21 21 19 17 16 15 10 5 2 1 0 1 2 2 2 3 3 3 3 5 7 9 11 10
93 89 83 80 76 68 64 62 55 49 43 41 45 45 36 27 23 21 21 22 21 20 20 20 15 8 3 2 1 0 0 1 1 1 3 3 4 5 4 4 8 14 14
88 84 80 77 72 65 62 60 55 47 41 40 45 45 37 29 25 26 26 26 24 23 24 21 15 10 5 2 1 0 0 0 0 0 1 2 3 4 2 2 5 9 11
77 77 78 77 73 66 60 57 52 45 38 37 40 42 38 31 26 27 30 31 30 29 26 21 18 14 9 4 1 0 1 1 1 0 0 0 1 1 2 2 3 5 7
69 71 76 78 75 68 60 55 50 42 37 34 36 40 38 31 25 25 31 35 35 33 28 22 21 18 12 5 1 1 2 2 2 1 0 0 0 0 1 2 3 5 6

GEFSSE_con_prob3kmehi_156.txt.gz
EHI
0 3 5 3 0 0 0 0 1 4 7 9 9 8 6 3 2 1 0 0 0 0 0 0 0 0 0 0 0 0 0 0 0 0 0 0 0 0 0 1 2 1 0
3 4 5 3 1 0 0 1 2 4 5 6 6 6 4 2 1 0 0 0 0 0 0 0 0 0 0 0 0 0 0 0 0 0 0 0 0 0 0 1 1 1 0
9 6 4 4 3 2 1 1 2 3 3 2 3 3 2 1 0 0 0 0 0 0 0 0 0 0 0 0 0 0 0 0 0 0 0 0 0 0 0 0 0 0 0
13 8 5 7 7 5 3 2 2 1 1 0 1 1 1 0 0 0 0 0 0 0 0 0 0 0 0 0 0 0 0 0 0 0 0 0 0 0 0 0 0 0 0
14 10 10 13 12 8 5 3 1 0 0 0 0 0 0 0 0 0 0 0 0 0 0 0 0 0 0 0 0 0 0 0 0 0 0 0 0 0 0 0 0 0 0
14 12 14 18 16 11 8 4 1 0 0 0 0 0 0 0 0 0 0 0 0 0 0 0 0 0 0 0 0 0 0 0 0 0 0 0 0 0 0 0 0 0 0
16 13 15 19 18 13 10 6 2 0 0 0 0 0 0 0 0 0 0 0 0 0 0 0 0 0 0 0 0 0 0 0 0 0 0 0 0 0 0 0 0 0 0
18 15 13 15 16 13 11 8 4 1 0 0 0 0 0 0 0 0 0 0 0 0 0 0 0 0 0 0 0 1 1 1 0 0 0 0 0 0 0 0 0 0 0
17 15 12 11 11 10 10 8 5 2 1 0 0 0 0 0 0 0 0 0 0 0 0 0 0 0 0 0 0 1 2 2 1 0 0 0 0 0 0 0 0 0 0
15 14 12 10 8 6 6 7 6 3 2 0 0 0 0 0 0 0 0 0 0 0 0 0 0 0 0 0 0 1 2 2 1 0 0 0 0 0 0 0 0 0 0
15 14 13 11 8 5 4 5 5 3 2 1 0 0 0 0 0 0 0 0 0 0 0 0 0 0 0 0 0 1 1 1 0 0 0 0 0 0 0 0 0 0 0
19 16 14 13 11 7 4 4 3 2 1 1 1 1 1 1 0 0 0 0 0 0 0 0 0 0 0 0 0 0 0 0 0 0 0 0 1 1 0 0 0 0 0
23 19 13 12 12 8 4 3 2 1 1 1 1 1 1 1 0 0 0 0 0 0 0 0 0 0 0 0 0 0 0 0 0 0 1 1 1 1 0 0 0 0 0
26 20 13 10 9 6 4 3 2 1 0 0 0 0 0 0 0 0 0 0 0 0 0 0 0 0 0 0 0 0 0 0 0 0 1 2 2 1 0 0 0 0 0
34 27 18 13 10 6 5 4 2 0 0 0 0 0 0 0 0 0 0 0 0 0 0 0 0 0 0 0 0 0 0 0 0 0 1 2 2 1 0 0 0 0 0
47 41 32 25 18 12 8 6 3 1 1 0 0 0 0 0 0 0 0 0 0 0 0 0 0 0 0 0 0 0 0 0 0 0 0 1 1 0 0 0 0 0 0
61 55 48 41 32 21 14 10 6 4 3 2 1 0 0 1 2 1 1 1 0 0 0 0 0 0 0 0 0 0 0 0 0 0 0 0 0 0 0 0 0 0 0
70 65 60 54 45 32 24 18 13 9 6 4 3 1 1 3 4 4 3 2 1 0 0 0 0 0 0 0 0 0 0 0 0 0 0 0 0 0 0 1 1 1 1
72 69 66 61 53 42 34 28 21 14 9 7 4 3 4 5 6 5 4 3 2 1 0 0 0 0 0 0 0 0 0 0 0 0 0 0 0 0 0 1 2 2 2
71 68 66 63 57 47 38 32 26 18 13 10 8 7 8 8 8 7 5 3 2 1 0 0 0 0 0 0 0 0 0 0 0 0 0 0 0 0 0 0 1 2 3
71 68 65 63 58 48 37 30 26 21 15 11 10 9 10 11 11 8 5 3 2 1 0 0 0 0 0 0 0 0 0 0 0 0 0 0 0 0 0 0 0 1 2
73 70 65 61 57 46 34 25 22 18 12 9 9 9 9 11 12 9 5 3 2 1 0 0 0 0 0 0 0 0 0 0 0 0 0 0 0 0 0 0 0 0 1
74 70 62 57 52 45 35 25 18 15 11 8 7 8 8 9 10 9 6 4 3 1 0 0 0 0 0 0 0 0 0 0 0 0 0 0 0 0 0 0 0 0 0
70 67 60 53 47 43 38 28 19 14 11 6 5 6 7 8 9 9 7 5 3 1 0 0 0 0 0 0 0 0 0 0 0 0 0 0 0 0 0 0 0 0 1
64 62 57 50 43 38 36 28 17 11 7 3 2 2 4 6 9 11 9 5 3 2 1 0 0 0 0 0 0 0 0 0 0 0 0 0 0 0 0 0 0 0 1
61 59 54 48 40 34 30 24 15 7 3 1 0 0 2 5 9 12 10 5 2 2 1 0 0 0 0 0 0 0 0 0 0 0 0 0 0 0 0 0 0 0 1

GEFSSE_con_prob3kmehi_162.txt.gz
EHI
0 0 0 1 5 9 15 22 27 25 20 14 9 6 4 3 2 1 0 0 0 0 0 0 0 0 0 0 0 0 0 0 0 0 0 0 0 0 0 0 0 0 0
0 0 0 1 5 9 13 20 25 24 20 14 9 5 2 1 1 0 0 0 0 0 0 0 0 0 0 0 0 0 0 0 0 0 0 0 0 0 0 0 0 0 0
0 0 0 1 4 7 9 13 17 19 17 13 8 3 1 0 0 0 0 0 0 0 0 0 0 0 0 0 0 0 0 0 0 0 0 0 0 0 0 0 0 0 0
0 0 0 1 3 4 5 6 7 10 10 9 6 3 1 0 1 0 0 0 0 0 0 0 0 0 0 0 0 0 0 0 0 0 0 0 0 0 0 0 0 0 0
0 0 2 4 5 4 4 4 3 4 5 6 5 2 0 0 0 0 0 0 0 0 0 0 0 0 0 0 0 0 0 0 0 0 0 0 0 0 0 0 0 0 0
1 1 4 7 7 6 5 5 4 4 5 4 3 2 1 0 0 0 0 0 0 0 0 0 0 0 0 0 0 0 0 0 0 0 0 0 0 0 0 0 0 0 0
3 3 6 9 8 7 6 6 5 5 5 4 4 3 2 1 1 0 0 0 0 0 0 0 0 0 0 0 0 0 0 0 0 0 0 0 0 0 0 0 0 0 0
6 5 6 8 8 8 8 6 5 4 4 4 4 4 3 3 2 1 0 0 0 0 0 0 0 0 0 0 0 0 1 0 0 0 0 0 0 0 0 0 0 0 0
5 5 5 5 7 9 9 8 6 4 4 3 2 3 3 3 2 1 0 0 0 0 0 0 0 0 0 0 0 0 0 0 0 0 0 0 0 0 0 0 0 0 0
2 2 3 5 6 7 8 9 8 6 4 2 1 1 1 1 2 2 1 0 0 0 0 0 0 0 0 0 0 0 0 0 0 0 0 0 0 0 0 0 0 0 0
2 2 3 5 5 5 5 6 6 5 3 1 0 0 0 0 1 2 1 0 0 0 0 0 0 0 0 0 0 0 0 0 0 0 0 0 0 0 0 0 0 0 0
7 5 3 4 4 4 3 3 3 2 1 0 0 0 0 0 0 1 1 0 0 0 0 0 0 0 0 0 0 0 0 0 0 0 0 0 0 0 0 0 0 0 0
10 7 4 3 3 3 3 4 3 1 0 0 0 0 0 0 0 0 0 0 0 0 0 0 0 0 0 0 0 0 0 0 0 0 0 0 0 0 0 0 0 0 0
10 8 6 6 5 4 4 5 4 1 0 0 0 0 0 0 0 0 0 0 1 0 0 0 0 0 0 0 0 0 0 0 0 0 0 0 0 0 0 0 0 0 0
9 9 10 10 9 7 6 6 4 1 0 0 0 0 0 0 0 0 0 0 0 0 0 0 0 0 0 0 0 0 0 0 0 0 0 0 1 1 1 0 0 0 0
8 10 11 12 11 10 6 4 2 1 0 0 0 0 0 0 0 0 0 0 0 0 0 0 0 0 0 0 0 0 0 0 0 0 0 0 1 1 1 0 0 0 0
8 10 11 11 11 9 6 2 1 0 0 0 0 0 0 0 0 0 0 0 0 0 0 0 0 0 0 0 0 0 0 0 0 0 0 0 0 1 1 0 0 0 0
12 11 11 10 9 6 3 1 0 0 0 0 0 0 0 0 0 0 0 0 0 0 0 0 0 0 0 0 0 0 0 0 0 0 0 0 0 0 0 0 0 0 0
17 15 13 10 7 3 1 0 0 0 0 0 0 0 0 0 0 0 0 0 0 0 0 0 0 0 0 0 0 0 0 0 0 0 0 0 0 0 0 0 0 0 1
19 17 14 11 6 2 0 1 1 0 0 0 0 0 0 0 1 1 1 0 0 0 0 0 0 0 0 0 0 0 0 0 0 0 0 0 0 0 0 0 0 0 1
24 20 16 13 7 2 1 2 2 1 0 0 0 0 0 1 2 3 2 2 1 0 0 0 0 0 0 0 0 0 0 0 0 0 0 0 0 0 0 0 0 0 1
33 27 22 18 10 5 4 5 3 1 1 1 1 0 1 2 3 4 4 4 2 1 0 0 0 0 0 0 0 0 0 0 0 0 0 0 0 0 0 0 0 0 0
39 34 27 21 14 9 8 8 7 5 3 3 2 1 1 2 3 4 4 4 3 2 1 0 0 0 0 0 0 0 0 0 0 0 0 0 0 0 0 0 0 0 0
39 36 29 21 17 14 12 11 10 7 5 4 3 1 1 1 2 3 4 4 4 3 1 0 0 0 0 0 0 0 0 0 0 0 0 0 0 0 0 0 0 0 0
34 33 28 22 19 17 14 11 9 6 4 3 1 1 0 0 1 2 3 4 4 4 2 1 0 0 0 0 0 0 0 0 0 0 0 0 0 0 0 0 0 0 0
29 30 28 23 19 17 14 11 7 4 3 1 0 0 0 0 0 1 1 2 3 4 3 2 1 0 0 0 0 0 0 0 0 0 0 0 0 0 0 0 0 0 0

GEFSSE_con_prob3kmehi_168.txt.gz
EHI
0 0 0 0 0 1 0 2 4 5 2 1 0 0 0 0 0 0 0 0 0 0 0 0 0 0 0 0 0 0 0 0 0 0 0 0 0 0 0 0 0 0 0
0 0 0 0 1 2 2 2 3 4 4 1 0 0 0 0 0 0 0 0 0 0 0 0 0 0 0 0 0 0 0 0 0 0 0 0 0 0 0 0 0 0 0
0 0 0 0 1 3 4 4 3 4 3 1 0 0 0 0 0 0 0 0 0 0 0 0 0 0 0 0 0 0 0 0 0 0 0 0 0 0 0 0 0 0 0
0 0 1 1 2 3 4 4 4 3 2 1 0 0 0 0 0 0 0 0 0 0 0 0 0 0 0 0 0 0 0 0 0 0 0 0 0 0 0 0 0 0 0
0 1 2 2 1 2 3 3 3 3 3 1 0 0 0 0 0 0 0 0 0 0 0 0 0 0 0 0 0 0 0 0 0 0 0 0 0 0 0 0 0 0 0
0 1 2 2 1 1 1 2 3 4 3 1 0 0 0 0 0 0 0 0 0 0 0 0 0 0 0 0 0 0 0 0 0 0 0 0 0 0 0 0 0 0 0
0 0 1 3 2 2 2 3 3 3 1 0 0 0 0 0 0 0 0 0 0 0 0 0 0 0 0 0 0 0 0 0 0 0 0 0 0 0 0 0 0 0 0
0 0 1 3 3 3 4 4 3 2 1 0 0 0 0 0 0 0 0 0 0 0 0 0 0 0 0 0 0 0 0 0 0 0 0 0 0 0 0 0 0 0 0
0 0 0 1 2 3 4 4 4 3 2 1 0 0 0 0 0 0 0 0 0 0 0 0 0 0 0 0 0 0 0 0 0 0 0 0 0 0 0 0 0 0 0
0 0 0 0 1 1 3 4 4 4 4 3 2 1 0 0 0 0 0 0 0 0 0 0 0 0 0 0 0 0 0 0 0 0 0 0 0 0 0 0 0 0 0
1 0 0 0 0 0 1 2 3 4 4 3 2 1 1 0 0 0 0 0 0 0 0 0 0 0 0 0 0 0 0 0 0 0 0 0 0 0 0 0 0 0 0
2 1 0 0 0 0 0 1 1 2 2 1 1 1 1 1 0 0 0 0 0 0 0 0 0 0 0 0 0 0 0 0 0 1 1 1 0 0 0 0 0 0 0
2 1 0 0 1 1 0 0 0 1 1 1 0 1 1 1 0 0 0 0 0 0 0 0 0 0 0 0 0 0 0 0 0 1 2 1 0 0 0 0 0 0 0
2 1 1 1 3 3 2 1 2 2 2 2 1 1 1 1 1 1 0 0 0 0 0 0 0 0 0 0 0 0 0 0 0 1 2 1 0 0 0 0 0 0 0
4 4 4 4 6 7 6 4 3 3 2 2 3 2 1 1 1 0 0 0 0 0 0 0 0 0 0 0 0 0 0 0 0 0 1 0 0 0 0 0 0 0 0
5 7 8 8 8 8 7 5 3 3 2 2 3 3 2 1 0 0 0 0 0 0 0 1 1 0 0 0 0 0 0 0 0 0 0 0 0 0 0 0 0 0 0
6 7 9 9 9 7 5 4 3 1 1 1 2 3 2 1 0 0 0 0 0 0 1 1 1 0 0 0 0 0 0 0 0 0 0 0 0 0 0 0 0 0 0
9 11 12 11 10 10 7 5 3 1 0 1 3 3 3 1 0 0 0 0 0 1 1 1 0 0 0 0 0 0 0 0 0 0 0 0 0 0 0 0 0 0 0
16 19 19 15 14 14 11 7 4 2 2 2 3 3 3 2 1 0 0 0 0 1 2 1 0 0 0 0 0 0 0 0 0 0 0 0 0 0 0 0 0 0 0
22 25 26 23 20 18 14 10 7 5 3 3 3 3 3 3 1 1 0 0 1 2 3 2 2 2 1 1 1 0 0 0 0 0 0 0 0 0 0 0 0 0 0
26 29 31 30 26 23 19 14 11 7 5 4 3 3 3 3 3 2 1 1 2 3 4 4 4 4 3 2 2 1 0 0 0 0 0 0 0 0 0 0 0 0 0
32 33 34 33 30 26 22 18 15 10 7 5 4 3 3 3 3 2 1 3 5 6 5 5 6 5 4 3 2 1 0 0 0 0 0 0 0 1 1 0 0 0 0
41 39 35 34 34 30 24 20 17 12 8 6 4 3 2 2 3 3 3 5 7 8 7 6 6 5 4 3 3 2 0 0 0 0 0 0 0 1 1 0 0 0 0
45 44 40 39 39 36 28 22 19 13 8 5 3 2 1 1 3 5 6 6 6 7 6 6 5 5 4 4 5 4 2 1 0 0 0 0 1 1 1 1 1 0 0
43 44 44 44 44 41 33 25 19 12 6 3 2 2 3 3 3 5 7 7 6 6 6 5 5 5 6 6 6 6 5 3 2 2 1 1 1 2 2 2 2 1 0
41 43 45 46 46 42 34 24 17 11 5 1 1 3 6 6 4 4 6 8 8 7 6 7 7 6 7 8 8 8 8 4 3 4 3 2 1 2 3 3 2 1 0

GEFSSE_con_prob3kmehi_174.txt.gz
EHI
1 2 4 5 5 4 2 1 0 0 0 0 0 0 0 0 0 0 0 0 0 0 0 0 0 0 0 0 0 0 1 1 1 0 0 0 0 0 0 1 0 1 2
1 2 4 4 4 3 2 1 0 0 0 0 0 0 0 0 0 0 0 0 0 0 0 0 0 0 0 0 0 0 0 0 0 0 0 0 0 0 0 1 1 1 2
1 1 2 2 2 1 1 0 0 0 0 0 0 0 0 0 0 0 0 0 0 0 0 0 0 0 0 0 0 0 0 0 0 0 0 0 0 0 0 1 1 1 1
2 1 1 0 0 0 0 0 0 0 0 0 0 0 0 0 0 0 0 0 0 0 0 0 0 0 0 0 1 1 0 0 0 0 0 0 0 0 0 0 1 1 0
5 3 1 0 0 0 0 0 0 0 0 0 0 0 0 0 0 0 0 0 0 0 0 0 0 0 0 0 1 1 1 2 2 1 0 1 0 0 0 0 0 0 0
6 4 2 2 1 0 0 0 0 0 0 0 0 0 0 0 0 0 0 0 0 0 0 0 0 0 0 0 0 1 3 5 3 1 1 1 1 1 0 0 0 0 0
9 7 5 3 2 1 1 1 0 0 0 0 0 0 0 0 0 0 0 0 0 0 0 0 0 0 0 0 0 1 5 7 5 2 2 1 1 1 0 0 0 0 0
12 10 6 4 3 3 3 2 1 1 1 0 0 0 0 0 0 0 0 0 0 0 0 0 0 0 0 0 0 0 5 9 5 2 2 1 1 1 0 0 0 0 0
12 9 5 4 4 5 4 3 3 2 2 1 0 1 1 0 0 0 0 0 0 0 0 0 0 0 1 1 0 1 6 9 5 2 3 2 1 0 0 0 0 0 0
11 8 5 4 5 6 4 3 3 3 3 2 2 2 2 1 0 0 0 0 0 0 0 0 0 0 1 2 2 3 7 7 4 2 3 3 3 1 0 0 0 0 0
11 8 6 6 6 6 5 3 2 2 3 3 4 4 3 1 1 1 2 2 1 0 0 0 0 1 2 2 4 6 7 5 3 3 4 5 5 3 1 0 0 0 0
9 7 6 7 5 6 7 5 2 2 3 4 5 5 3 1 1 2 3 3 1 0 0 1 1 1 2 3 5 7 6 3 2 2 4 6 7 5 2 0 0 0 0
9 8 9 11 10 11 11 6 3 4 5 4 5 6 4 2 1 2 3 3 3 2 2 3 2 1 2 4 4 4 3 1 1 1 3 5 6 5 3 1 0 0 0
13 14 19 23 23 22 17 9 6 7 7 8 9 8 5 2 1 1 2 4 4 4 3 2 2 1 1 3 3 1 1 1 1 1 1 3 4 4 3 1 0 0 0
19 22 29 33 31 27 23 16 11 10 10 12 13 10 6 4 2 2 2 3 2 2 2 1 1 1 1 1 1 0 0 1 2 2 2 2 2 2 2 1 0 0 0
27 29 32 34 31 26 22 19 14 11 11 14 17 14 8 5 5 3 1 1 1 2 4 3 1 1 1 0 0 0 0 1 2 3 3 2 2 2 1 0 0 0 0
36 36 34 31 30 27 21 17 13 10 11 16 21 19 12 8 7 5 3 1 2 5 8 6 3 2 1 0 0 0 1 3 4 4 4 3 2 2 2 1 1 0 0
52 49 39 33 34 32 25 18 13 11 13 18 23 23 17 11 9 7 5 4 5 6 8 7 3 1 1 0 0 1 3 5 5 4 3 3 4 5 5 4 3 2 1
68 63 50 41 41 39 32 24 16 14 16 18 23 27 23 14 10 7 6 9 9 6 5 5 4 4 3 1 1 2 4 6 7 4 2 2 5 8 9 8 7 5 3
74 70 60 53 49 44 37 30 21 16 15 17 24 32 29 19 13 9 9 13 14 9 6 6 8 9 6 3 2 3 6 8 8 6 3 2 5 9 11 13 12 8 6
74 73 68 63 56 46 38 33 27 21 16 16 23 33 34 25 18 13 12 16 16 12 10 9 11 10 7 4 3 4 6 7 7 8 7 6 6 7 12 16 16 13 11
77 75 71 68 61 51 41 36 31 25 21 18 23 33 36 28 21 16 15 17 16 14 13 13 13 11 6 5 5 5 5 4 5 6 9 10 11 11 11 15 19 19 17
77 74 69 68 65 57 50 43 37 32 26 22 25 31 32 26 19 15 16 16 16 16 17 18 16 12 8 6 7 8 6 5 4 4 6 10 14 13 11 12 17 21 21
75 71 69 69 67 63 57 51 47 40 30 23 25 28 27 21 15 13 14 15 15 16 17 18 16 15 12 9 9 10 10 7 5 4 4 7 11 12 10 9 12 19 21
72 70 70 70 69 67 61 55 50 42 30 23 25 28 26 20 14 12 12 15 17 16 15 15 16 17 16 13 11 11 11 10 8 6 3 3 6 8 9 8 9 14 18
69 70 69 70 70 69 63 55 49 40 29 24 27 30 27 21 16 13 13 16 19 17 14 14 17 19 17 14 13 12 11 12 10 6 2 1 2 5 8 9 10 13 15

GEFSSE_con_prob3kmehi_180.txt.gz
EHI
1 2 3 3 3 3 2 1 1 2 2 2 2 2 2 2 2 2 1 0 0 0 0 0 0 0 0 0 0 0 0 0 0 0 0 0 0 0 1 1 1 0 0
2 3 3 4 4 3 2 1 0 1 1 1 1 1 1 1 1 1 0 0 0 0 0 0 0 0 0 0 0 0 0 0 0 0 0 0 0 1 2 3 3 2 1
3 3 4 5 5 4 3 2 0 0 0 0 0 0 0 0 0 0 0 0 0 0 0 0 0 0 0 0 0 0 0 0 1 0 0 0 0 1 2 3 4 3 1
2 3 4 6 6 6 6 4 2 0 0 0 0 0 0 0 0 0 0 0 0 0 0 0 0 0 0 0 0 0 0 0 0 0 0 0 0 0 1 2 4 3 1
1 1 3 6 7 7 7 6 3 1 0 0 0 0 0 0 0 0 0 0 0 0 0 0 0 0 0 0 0 0 0 0 0 0 0 0 0 0 0 1 2 2 1
0 0 2 5 7 6 6 5 3 1 0 0 0 0 0 0 0 0 0 0 0 0 0 0 0 0 0 0 0 0 0 0 0 0 0 0 0 0 0 0 1 1 0
0 0 1 4 5 5 4 4 2 1 0 0 0 0 0 0 0 0 0 0 0 0 0 0 0 0 0 0 0 0 0 0 0 0 0 0 0 0 0 0 0 0 0
0 0 1 2 4 4 3 2 1 0 0 0 0 0 0 0 0 0 0 0 0 0 0 0 0 0 0 0 0 0 0 0 0 0 0 0 0 0 0 0 0 0 0
0 1 1 1 2 3 2 1 0 0 0 0 0 0 0 0 0 0 0 0 0 0 0 0 0 0 0 1 1 1 1 1 0 0 0 0 0 0 0 0 0 0 0
1 2 2 1 1 1 1 0 0 0 0 0 0 0 0 0 0 0 0 0 0 0 0 0 1 1 1 2 2 2 1 1 0 0 0 1 2 1 0 0 0 0 0
3 3 2 1 0 0 0 0 0 0 0 0 0 0 0 0 0 0 0 0 0 0 0 1 2 2 2 2 2 1 1 0 0 0 0 2 3 2 0 0 0 0 0
5 3 1 1 1 1 0 0 0 0 0 0 0 0 0 0 0 0 0 0 0 0 0 1 2 2 1 1 1 0 0 0 0 0 1 3 5 3 1 0 0 0 0
6 4 1 1 2 1 1 0 0 0 0 0 0 0 0 0 0 0 0 0 0 0 0 0 1 1 0 0 0 0 0 0 0 0 1 2 4 3 1 0 0 0 0
10 7 4 2 2 1 1 2 1 0 0 0 0 0 0 0 0 0 0 0 0 0 0 0 0 0 0 0 0 0 0 0 0 0 0 1 2 3 2 0 0 0 0
17 14 9 5 3 2 3 4 4 2 1 0 0 0 0 0 0 0 0 0 0 0 0 0 0 0 0 0 0 0 0 0 0 0 0 0 2 4 3 2 1 1 0
25 21 16 12 9 7 6 7 7 5 3 1 0 0 0 0 0 0 0 0 0 0 0 0 0 0 0 0 0 0 0 0 0 0 0 0 2 4 5 4 3 2 1
33 29 24 20 16 12 8 7 7 6 4 2 0 0 0 0 0 0 0 0 0 0 0 0 0 0 0 0 0 0 0 0 0 0 0 0 1 3 5 6 6 4 2
39 36 31 25 18 12 8 7 6 4 2 1 0 0 0 0 0 0 0 0 0 0 0 0 0 0 0 0 0 0 0 0 0 0 0 0 0 1 3 7 9 7 6
40 38 33 25 16 11 9 8 6 3 1 0 0 0 0 1 1 0 0 0 0 0 0 0 0 0 0 0 0 0 0 0 0 0 0 0 0 0 1 4 7 8 8
39 38 34 25 17 12 10 9 7 5 2 0 0 0 0 1 1 1 1 0 0 0 0 0 0 0 0 0 0 0 0 0 0 0 0 0 0 0 0 1 3 5 6
44 42 36 29 21 16 13 11 9 7 3 1 1 1 1 1 1 2 2 1 0 0 0 0 0 0 0 0 0 0 0 0 0 0 0 0 0 0 0 0 1 1 2
52 48 41 32 25 20 16 12 9 6 3 2 2 2 1 0 0 1 1 1 1 1 1 1 1 0 0 1 0 0 0 0 0 0 0 0 0 0 0 1 1 0 0
56 50 43 34 25 21 17 12 8 6 4 3 3 2 1 0 0 0 1 1 3 4 3 2 1 1 1 1 0 0 0 0 0 0 0 0 0 0 0 1 1 0 0
55 50 44 37 28 21 15 11 8 7 5 4 3 1 0 0 0 0 0 2 4 5 4 2 2 2 1 1 0 0 0 0 0 0 0 0 0 0 0 0 0 0 1
51 48 44 38 30 22 16 12 10 7 5 3 2 0 0 1 0 0 0 1 3 3 3 1 1 1 1 1 0 0 0 0 0 0 0 0 0 0 0 0 0 0 1
47 46 44 39 30 22 17 14 12 8 4 3 2 1 0 1 0 0 0 0 1 2 2 1 0 0 0 1 0 0 0 0 0 0 0 0 0 0 0 0 0 0 1

GEFSSE_con_prob3kmehi_186.txt.gz
EHI
0 0 1 2 3 4 5 6 5 4 1 1 1 1 0 0 0 0 0 0 0 0 0 0 0 0 0 0 0 0 0 0 0 0 0 0 0 0 0 0 0 0 0
0 0 1 2 3 4 5 5 4 3 1 0 0 0 0 0 0 0 0 0 0 0 0 0 0 0 0 0 0 0 0 0 0 0 0 0 0 0 0 0 0 0 0
0 0 1 2 3 3 4 4 3 2 1 0 0 0 0 0 0 0 0 0 0 0 0 0 1 0 0 0 0 0 0 0 0 0 0 0 0 0 0 0 0 0 0
0 0 0 1 2 2 3 3 4 2 1 0 0 0 0 0 0 0 0 0 0 0 0 0 0 0 0 0 0 0 0 0 0 0 0 0 0 0 0 0 0 0 0
0 0 1 2 2 2 2 3 3 1 1 0 0 0 0 0 0 0 0 0 0 0 0 0 0 0 0 0 0 0 0 0 0 0 0 0 0 0 0 0 0 0 0
0 0 1 4 4 4 3 2 1 0 0 0 0 0 0 0 0 0 0 0 0 0 0 0 0 0 0 0 0 0 0 0 0 0 0 0 0 0 0 0 0 0 0
0 0 1 4 5 5 3 1 0 0 0 0 0 0 0 0 0 0 0 0 0 0 0 0 0 0 0 0 0 0 0 0 0 0 0 0 0 0 0 0 0 0 0
0 0 0 2 3 3 2 1 0 0 0 0 0 0 0 0 0 0 0 0 0 0 0 0 0 0 0 0 0 1 1 0 0 0 0 0 0 0 0 0 0 0 0
0 0 0 0 1 2 2 1 0 0 0 0 0 0 0 0 0 0 0 0 0 0 0 0 0 0 0 0 0 2 2 1 0 0 0 0 0 0 0 0 0 0 0
0 0 0 0 0 1 1 1 0 0 0 0 0 0 0 0 0 0 0 0 0 0 0 0 0 0 0 0 0 2 3 1 0 0 0 0 0 0 0 0 0 0 0
1 0 0 0 0 0 0 0 0 0 0 0 0 0 0 0 0 0 0 0 0 0 0 0 0 0 0 0 0 1 2 1 0 0 0 0 0 0 0 0 0 0 0
1 0 0 0 0 0 0 0 0 0 0 0 0 0 0 0 0 0 0 0 0 0 0 0 0 0 0 0 0 0 0 0 0 0 0 0 0 0 0 0 0 0 0
1 0 0 0 0 0 0 0 0 0 0 0 0 0 0 0 0 0 0 0 0 0 0 0 0 0 0 0 0 0 0 0 0 0 0 0 0 0 0 0 0 0 0
0 0 0 0 0 0 0 0 0 0 0 0 0 0 0 0 0 0 0 0 0 0 0 0 0 0 0 0 0 0 0 0 0 0 0 0 0 0 0 0 0 0 0
0 0 0 0 0 0 0 0 0 0 0 0 0 0 0 0 0 0 0 0 0 0 0 0 0 0 0 0 0 0 0 0 0 0 0 0 0 0 0 0 0 0 0
0 0 0 0 0 0 0 0 0 0 0 0 0 0 0 0 0 0 0 0 0 0 0 0 0 0 0 0 0 0 0 0 0 0 0 0 0 0 0 0 0 0 0
1 0 0 0 0 0 0 0 0 0 0 0 0 0 0 0 0 0 0 0 0 0 0 0 0 0 0 0 0 0 0 0 0 0 0 0 0 0 1 1 1 1 1
2 1 1 2 2 1 1 1 1 1 1 0 0 0 0 0 0 0 0 0 0 0 0 0 0 0 0 0 0 0 0 0 0 0 0 0 0 0 1 1 2 3 3
5 3 3 4 4 3 3 3 3 2 1 0 0 0 0 0 0 0 0 0 0 0 0 0 0 0 0 0 0 0 0 0 0 0 0 0 0 0 0 1 2 3 3
7 6 5 5 5 5 5 5 3 1 1 0 0 0 0 0 0 0 0 0 0 0 0 0 0 0 0 0 0 0 0 0 0 0 0 0 0 0 0 0 0 1 2
10 8 7 7 6 6 6 5 2 0 0 0 0 0 0 0 0 0 0 0 0 0 0 0 0 0 0 0 0 0 0 0 0 0 0 0 0 0 0 0 0 0 1
12 11 10 9 8 6 5 4 1 0 0 0 0 0 0 0 0 0 0 0 0 0 0 0 0 0 0 0 0 0 0 0 0 0 0 0 0 0 0 0 0 0 0
14 13 12 11 9 7 6 4 3 2 1 0 0 0 0 0 0 0 0 0 0 0 0 0 0 0 0 0 0 0 0 0 0 0 0 0 0 0 0 0 0 0 0
16 14 11 10 8 8 7 6 6 6 4 1 1 1 0 0 0 0 0 0 0 0 0 0 0 0 0 0 0 0 0 0 0 0 0 0 0 0 0 0 0 0 0
16 13 9 7 6 7 7 7 7 7 4 2 2 2 1 0 0 0 0 0 0 0 0 0 0 0 0 0 0 0 0 0 0 0 0 0 0 0 0 0 0 0 0
15 11 7 6 5 6 6 6 6 6 5 3 3 3 2 1 0 0 0 0 0 0 0 0 0 0 0 0 0 0 0 0 0 0 0 0 0 0 0 0 0 0 0

GEFSSE_con_prob3kmehi_192.txt.gz
EHI
0 0 0 0 0 0 0 0 0 0 0 0 0 0 0 0 0 0 0 0 0 0 0 0 0 0 0 0 0 0 0 0 0 0 0 0 0 0 0 0 0 0 0
0 0 0 0 0 0 0 0 0 0 0 0 0 0 0 0 0 0 0 0 0 0 0 0 0 0 0 0 0 0 0 0 0 0 0 0 0 0 0 0 0 0 0
0 0 0 0 0 1 1 0 0 0 0 0 0 0 0 0 0 0 0 0 0 0 0 0 0 0 0 0 0 0 0 0 0 0 0 0 0 0 0 0 0 0 0
0 0 0 0 0 1 2 1 0 0 0 0 0 0 0 0 0 0 0 0 0 0 0 0 0 0 0 0 0 0 0 0 0 0 0 0 0 0 0 0 0 0 0
0 0 0 0 0 1 2 2 1 0 0 0 0 0 0 0 0 0 0 0 0 0 0 0 0 0 0 0 0 0 0 0 0 0 0 0 0 0 0 0 0 0 0
1 1 0 0 0 1 1 1 1 0 0 0 0 0 0 0 0 0 0 0 0 0 0 0 0 0 0 0 0 0 0 0 0 0 0 0 0 0 0 0 0 0 0
0 0 0 0 0 0 0 0 0 0 0 0 0 0 0 0 0 0 0 0 0 0 0 0 0 0 0 0 0 0 0 0 0 0 0 0 0 0 0 0 0 0 0
0 0 0 0 0 0 0 0 0 0 0 0 0 0 0 0 0 0 0 0 0 0 0 0 0 0 0 0 0 0 0 0 0 0 0 0 0 0 0 0 0 0 0
0 0 0 0 0 0 0 0 0 0 0 0 0 0 0 0 0 0 0 0 0 0 0 0 0 0 0 0 0 0 0 0 0 0 0 0 0 0 0 0 0 0 0
0 0 0 0 0 0 0 0 0 0 0 0 0 0 0 0 0 0 0 0 0 0 0 0 0 0 0 0 0 0 0 0 0 0 0 0 0 0 0 0 0 0 0
0 0 0 0 0 0 0 0 0 0 0 1 1 0 0 0 0 0 0 0 0 0 0 0 0 0 0 0 0 0 0 0 0 0 0 0 0 0 0 0 0 0 0
0 0 0 0 0 0 0 0 0 0 0 0 1 1 0 0 0 0 0 0 0 0 0 0 0 0 0 0 0 0 0 0 0 0 0 0 0 0 0 0 0 0 0
0 0 0 0 0 0 0 0 0 0 0 0 0 0 0 0 0 0 0 0 0 0 0 0 0 0 0 0 0 0 0 0 0 0 0 0 0 0 0 0 0 0 0
0 0 1 1 1 1 0 0 0 0 0 0 0 0 0 0 0 0 0 0 0 0 0 0 0 0 0 0 0 0 0 0 0 0 0 0 0 0 0 0 0 0 0
0 1 2 2 2 2 2 1 0 0 1 1 0 0 0 0 0 0 0 0 1 1 1 0 0 0 0 0 0 0 0 0 0 0 0 0 0 0 0 0 0 0 0
0 1 3 3 4 5 5 4 2 2 2 2 1 0 0 1 0 0 0 1 1 0 1 1 0 0 0 0 0 0 0 0 0 0 0 0 0 0 0 0 0 0 0
3 5 5 5 5 7 7 6 6 5 4 3 2 1 1 1 0 0 0 0 0 0 0 0 0 0 0 0 0 0 0 0 0 0 0 0 0 0 0 1 1 0 1
7 10 10 7 6 7 8 8 9 9 7 5 3 2 1 0 0 0 0 0 0 0 0 0 0 0 0 0 0 0 0 0 0 0 0 0 0 0 1 2 2 1 1
11 13 13 10 8 8 8 9 10 9 8 5 3 2 1 1 0 0 0 0 0 1 0 0 0 0 0 0 0 0 0 0 0 0 0 0 0 0 1 2 1 0 1
12 13 13 13 13 12 10 9 9 9 8 5 2 1 1 1 0 0 0 0 0 0 0 0 0 0 0 0 0 0 0 0 0 0 0 0 0 0 0 1 0 0 1
13 13 13 15 19 18 15 11 10 9 7 5 2 0 0 0 0 0 0 0 0 0 0 0 0 0 0 0 0 0 0 0 0 0 0 0 0 0 0 0 0 2 4
17 17 16 17 20 22 18 14 11 9 7 5 3 1 1 1 0 0 0 0 0 0 0 0 0 0 0 0 0 0 0 0 0 0 0 0 1 1 0 0 1 3 5
22 22 21 21 21 22 20 15 11 9 7 6 5 4 3 3 1 0 0 0 0 0 0 0 0 0 0 0 0 0 0 0 0 1 1 1 1 1 0 0 1 3 4
23 23 24 24 22 21 19 15 11 9 7 7 7 7 6 5 3 1 1 0 0 0 0 0 0 0 0 1 1 0 1 2 2 3 2 2 2 2 1 1 2 3 3
22 23 25 25 23 20 18 15 12 9 7 7 8 9 8 7 5 4 3 1 1 0 1 1 1 1 2 3 3 2 3 5 6 5 4 3 3 3 3 3 3 3 2
22 23 25 28 25 19 16 15 14 11 8 8 9 10 9 7 6 6 4 3 2 1 2 2 1 1 3 5 5 5 7 8 8 6 4 4 4 4 4 4 3 3 3

GEFSSE_con_prob3kmehi_198.txt.gz
EHI
0 1 2 2 1 0 0 0 0 0 0 0 0 0 0 0 0 0 0 0 0 0 0 0 0 0 0 0 0 0 0 0 0 0 0 0 0 0 0 0 0 0 0
0 0 1 1 0 0 0 0 0 0 0 0 0 0 0 0 0 0 0 0 0 0 0 0 0 0 0 0 0 0 0 0 0 0 0 0 0 0 0 0 0 0 0
0 0 0 0 0 0 0 0 0 0 0 0 0 0 0 0 0 0 0 0 0 0 0 0 0 0 0 0 0 0 0 0 0 0 0 0 0 0 0 0 0 0 0
2 1 1 0 0 0 0 0 0 0 0 0 0 0 0 0 0 0 0 0 0 0 0 0 0 0 0 0 0 0 0 0 0 0 0 0 0 0 0 0 0 0 0
4 3 1 0 0 0 0 0 0 0 0 0 0 0 0 0 0 0 0 0 0 0 0 0 0 0 0 0 0 0 0 1 1 1 0 0 0 0 0 0 0 0 0
3 2 1 0 0 0 0 0 0 0 0 0 0 0 0 0 0 0 0 0 0 0 0 0 0 0 0 0 0 0 2 4 4 2 1 0 0 0 0 0 0 0 0
3 1 0 1 1 0 0 0 0 0 0 0 0 0 0 0 0 0 0 0 0 0 0 0 0 0 0 0 0 0 4 8 6 3 3 1 0 0 0 0 0 0 0
5 2 1 2 2 1 0 0 0 0 0 0 0 0 0 0 0 0 0 0 0 0 0 0 0 0 0 0 0 0 4 8 5 2 3 1 0 0 0 0 0 0 0
4 3 2 2 2 1 0 0 0 0 0 0 0 0 0 1 1 0 0 0 0 0 0 0 0 0 0 0 0 2 6 8 4 1 2 1 0 0 0 0 0 0 0
2 2 2 3 3 2 1 1 0 0 0 0 1 1 1 2 1 0 0 0 0 0 0 0 0 1 1 2 3 6 11 11 4 1 0 0 0 0 0 0 0 0 0
1 1 2 3 4 3 2 2 2 1 2 2 2 2 2 2 1 0 0 0 0 0 0 1 2 2 3 4 6 11 13 10 3 0 0 1 1 0 0 0 0 0 0
2 2 2 2 3 3 3 3 3 4 5 4 4 3 2 1 0 1 1 2 2 1 1 2 3 3 2 3 6 9 9 5 1 0 1 2 1 0 0 0 0 0 0
3 3 3 4 6 7 5 3 4 6 7 5 3 2 1 1 0 1 2 2 2 1 1 2 3 2 1 1 2 3 3 2 0 0 1 1 1 0 0 0 0 0 0
4 5 7 9 12 12 9 6 7 8 7 4 3 2 1 1 1 0 1 1 2 1 1 1 2 1 0 1 1 1 1 1 1 1 1 2 1 0 0 0 0 0 0
7 11 15 16 18 16 14 12 11 9 6 4 4 3 1 1 1 1 1 1 2 1 1 2 1 0 1 2 1 0 1 2 2 2 3 5 4 2 1 0 0 0 0
14 17 19 21 22 20 16 13 11 8 6 4 4 2 2 2 2 1 1 1 1 2 4 3 1 1 2 2 1 1 2 3 4 3 5 7 7 5 4 3 2 2 1
23 21 18 20 24 22 15 11 9 7 7 7 5 3 2 3 3 2 2 1 1 3 5 4 2 1 1 1 1 2 4 6 7 7 7 8 8 8 8 9 9 7 5
33 29 20 17 22 22 17 12 9 9 10 10 8 6 4 3 2 3 4 3 2 2 3 3 2 1 0 0 1 3 6 9 10 10 9 10 9 9 11 14 16 14 11
41 37 27 20 21 23 21 17 13 13 14 13 11 9 6 2 1 2 4 4 2 1 0 1 1 1 1 1 1 4 7 10 11 10 11 11 11 11 12 13 15 15 14
49 47 39 30 26 26 25 23 20 18 17 15 14 13 9 3 1 2 2 2 1 0 1 2 1 1 2 2 2 3 5 7 9 9 10 10 10 10 11 11 11 11 10
59 58 51 42 35 31 28 26 25 22 20 16 16 16 12 5 2 3 3 3 2 1 2 3 3 2 2 1 1 2 2 3 5 7 9 10 8 7 8 11 13 12 9
71 67 59 52 46 38 32 29 26 25 22 17 16 18 14 9 5 5 6 5 3 3 3 3 3 2 1 1 1 2 1 0 1 4 7 9 6 4 6 10 14 15 13
79 74 66 63 56 44 35 31 28 25 21 17 19 21 19 16 12 8 6 6 4 4 3 3 3 4 3 2 3 3 2 1 0 1 3 5 4 3 4 6 10 13 13
78 78 77 73 62 48 37 31 28 26 21 21 23 25 25 24 19 13 11 11 10 7 5 4 5 7 7 5 5 5 4 3 2 1 1 1 2 2 2 3 6 9 10
71 77 81 79 67 51 38 31 28 25 22 23 26 28 30 29 25 21 19 20 19 14 9 9 10 11 10 8 6 6 6 5 4 3 1 0 0 0 1 2 4 8 10
68 72 78 79 70 54 40 32 28 25 22 24 27 30 32 32 28 25 24 25 24 18 14 13 13 12 12 10 7 6 6 6 4 3 2 1 0 0 1 2 4 7 10

GEFSSE_con_prob3kmehi_204.txt.gz
EHI
0 1 2 1 0 0 0 0 0 0 0 0 0 0 0 0 0 0 0 0 1 2 3 3 3 2 1 0 0 0 0 0 0 0 0 0 0 0 0 0 0 0 0
0 1 2 2 1 0 0 0 0 0 0 0 0 0 0 0 0 0 0 0 1 2 3 3 3 2 0 0 0 0 0 0 0 0 0 0 0 0 0 0 0 0 0
0 1 3 4 2 1 0 0 0 0 0 0 0 0 0 0 0 1 1 1 1 2 3 3 3 2 0 0 0 0 0 0 0 0 0 0 0 1 1 0 0 0 0
0 0 2 3 3 2 1 0 0 0 0 0 0 0 0 0 0 1 2 1 1 1 1 2 2 1 0 0 0 0 0 0 0 0 0 0 1 2 2 1 0 0 0
0 0 1 3 3 2 1 0 0 0 0 0 0 0 0 0 0 1 1 1 0 0 0 1 1 0 0 0 0 0 0 0 0 0 0 0 1 2 2 1 0 0 0
0 0 2 3 4 2 0 0 0 0 0 0 0 0 0 0 0 0 0 0 0 0 0 0 0 0 0 0 0 0 1 1 1 0 0 0 0 1 1 0 0 0 0
1 0 1 3 4 1 0 0 0 0 0 0 0 0 0 0 0 0 0 0 0 0 0 0 0 0 0 0 0 0 1 1 1 0 0 0 1 2 1 0 0 0 0
2 1 1 2 3 2 1 0 0 0 0 0 0 0 0 0 0 0 0 0 0 0 0 0 0 0 0 1 1 1 1 1 0 0 0 1 3 3 1 0 0 0 0
3 2 1 1 2 2 1 0 0 0 0 0 1 1 1 0 0 0 0 0 0 0 0 0 0 0 2 3 5 4 3 1 0 0 0 2 5 4 1 0 0 0 0
2 1 0 0 1 1 1 0 0 0 1 1 1 2 1 0 0 0 0 0 0 1 1 1 0 1 4 6 7 6 3 1 0 0 0 2 4 3 0 0 0 0 0
1 0 0 0 0 0 0 0 0 1 2 2 1 1 1 0 0 0 0 0 1 2 2 2 1 1 3 4 5 4 2 1 0 0 0 1 2 1 0 0 0 0 0
0 0 0 0 0 0 0 0 0 1 2 1 0 0 0 0 0 0 0 0 1 2 2 2 1 0 1 1 1 1 1 0 0 0 0 1 2 1 0 0 0 0 0
1 0 0 1 1 1 1 0 0 1 1 0 0 0 0 0 0 0 0 0 1 1 1 1 0 0 0 0 0 0 0 0 0 0 1 4 4 3 1 1 1 0 0
3 2 2 4 4 4 3 2 1 1 0 0 0 0 0 0 0 0 0 0 0 0 0 0 0 0 0 0 0 0 0 0 0 0 3 7 9 7 5 3 2 1 0
8 8 8 8 7 7 6 5 3 1 1 0 0 0 0 0 0 0 0 0 0 0 0 0 0 0 0 0 0 0 0 0 0 0 3 8 11 11 9 7 5 2 0
13 15 15 12 8 7 7 5 2 1 1 0 0 0 0 0 0 0 0 0 0 0 0 0 0 0 0 0 0 0 0 0 0 0 1 5 9 12 12 11 7 3 1
16 17 18 15 9 7 6 4 2 1 0 0 0 0 0 0 0 0 0 0 0 0 0 0 0 0 0 0 0 0 0 0 0 0 0 2 5 8 11 11 8 6 3
19 18 17 15 10 7 5 4 2 1 0 0 0 1 1 0 0 0 0 0 0 0 0 0 0 0 0 0 0 0 0 0 0 0 0 0 1 3 6 8 9 9 7
21 19 17 13 8 6 4 3 3 2 1 0 1 1 0 0 0 0 0 0 0 0 0 0 0 0 0 0 0 0 0 0 0 0 0 0 0 0 2 4 8 9 7
23 23 20 14 8 5 4 3 3 2 1 0 0 0 0 0 0 0 0 0 0 0 0 0 0 0 0 0 0 0 0 0 0 0 0 0 0 0 0 1 3 4 4
28 26 24 19 14 9 6 4 3 2 1 0 0 0 0 0 0 0 0 0 0 0 0 0 0 0 0 0 0 0 0 0 0 0 0 0 0 0 0 0 0 1 1
36 31 26 24 20 15 11 7 4 2 1 1 1 0 0 0 0 0 0 0 0 0 0 0 0 0 0 0 0 0 0 0 0 0 0 0 0 0 0 0 0 0 0
44 37 29 25 22 18 13 8 6 5 3 2 1 0 0 0 0 0 0 0 0 0 0 0 0 0 0 0 0 0 0 0 0 0 0 0 0 0 0 0 0 0 0
47 42 35 28 21 16 11 8 8 7 5 3 1 0 0 0 0 0 0 0 0 0 0 0 0 0 0 0 0 0 0 0 0 0 0 0 0 0 0 0 0 0 0
50 49 43 32 21 13 9 7 7 6 4 2 0 0 0 0 1 1 1 1 0 0 0 0 0 0 0 0 0 0 0 0 0 0 0 0 0 0 0 0 0 0 0
56 54 47 34 21 13 9 7 6 5 3 1 0 0 0 1 2 2 2 2 1 1 1 1 0 0 0 0 0 0 0 0 0 0 0 0 0 0 0 0 0 0 0

GEFSSE_con_prob3kmehi_210.txt.gz
EHI
1 1 1 0 0 0 0 0 0 0 0 0 0 0 0 0 0 0 0 0 0 0 0 0 0 0 0 0 0 0 0 0 0 0 0 0 0 0 0 0 0 0 0
0 0 0 0 0 0 0 0 0 0 0 0 0 0 0 1 1 0 0 0 0 0 0 0 0 0 0 0 0 0 0 0 0 0 0 0 0 0 0 0 0 0 0
0 0 0 0 0 0 0 0 0 0 0 0 0 0 0 1 1 0 0 0 0 0 0 0 0 0 0 0 0 0 0 0 0 0 0 0 0 0 0 0 0 0 0
0 0 0 0 0 0 1 1 1 0 0 0 0 0 0 1 1 0 0 0 0 0 0 0 0 0 0 0 0 0 0 0 0 0 0 0 0 0 0 0 0 0 0
0 0 1 1 1 0 1 1 1 0 0 0 0 0 0 0 0 0 0 0 0 0 1 1 1 0 0 0 0 0 1 1 0 0 0 0 0 0 0 0 0 0 0
0 0 1 1 1 0 0 0 0 0 0 0 0 0 0 0 0 0 0 0 0 0 1 1 1 0 0 0 0 0 1 1 0 0 0 0 0 0 0 0 0 0 0
0 0 0 0 0 0 0 0 0 0 0 0 0 0 0 0 0 0 0 0 0 0 0 0 0 0 0 0 0 0 0 0 0 0 0 0 0 0 0 0 0 0 0
0 0 0 0 0 0 0 0 0 0 0 0 0 0 0 0 0 0 0 0 0 0 0 0 0 0 0 0 0 1 1 1 0 0 0 0 0 0 0 0 0 0 0
0 0 0 0 0 0 0 0 0 0 0 0 0 0 0 0 0 0 0 0 0 0 0 0 0 0 0 0 0 1 3 2 0 0 0 0 0 0 0 0 0 0 0
0 0 0 0 0 0 0 0 0 0 1 0 0 0 0 0 0 0 0 0 0 0 0 0 0 0 0 0 0 1 2 2 0 0 0 0 0 0 0 0 0 0 0
0 0 0 0 0 0 0 0 0 0 0 0 0 0 0 0 0 0 0 0 0 0 0 0 1 1 0 0 0 0 1 1 0 0 0 0 0 0 0 0 0 0 0
0 0 0 1 1 1 1 1 0 0 0 0 0 0 0 0 0 0 0 0 0 0 0 0 1 1 0 0 0 0 0 0 0 0 0 0 0 0 0 0 0 0 0
0 0 0 1 2 2 2 1 0 0 0 0 0 0 0 0 0 0 0 0 0 0 0 0 0 0 0 0 0 0 0 0 0 0 0 0 0 1 1 0 0 0 0
0 0 0 1 1 1 1 1 0 0 0 0 0 0 0 0 0 0 0 0 0 0 0 0 0 0 0 0 0 0 0 0 0 0 0 0 0 2 2 1 0 0 0
0 0 0 0 0 1 1 0 0 0 0 0 0 0 0 0 0 0 0 0 0 0 0 0 0 0 0 0 0 0 0 0 0 0 0 0 0 1 1 1 0 0 0
0 0 0 0 0 1 2 1 0 0 0 0 0 0 0 0 0 0 0 0 0 0 0 0 0 0 0 0 0 0 0 0 0 0 0 0 0 1 1 1 2 1 0
0 0 0 0 1 2 2 1 0 0 0 0 0 0 0 0 0 0 0 0 0 0 0 0 0 0 0 0 0 0 0 0 0 0 0 0 0 1 2 2 2 1 1
0 0 0 1 2 3 3 2 1 0 0 0 0 0 0 0 0 0 0 0 0 0 0 0 0 0 0 0 0 0 0 0 0 0 0 0 0 1 2 2 1 1 0
0 1 1 2 3 3 3 3 2 1 0 0 0 0 0 0 0 0 0 0 0 0 0 0 0 0 0 0 0 0 0 0 0 0 0 0 0 0 1 1 0 0 0
2 3 3 4 4 3 3 3 3 2 1 0 0 0 0 0 0 0 0 0 0 0 0 0 0 0 0 0 0 0 0 0 0 0 0 0 0 0 0 0 0 0 0
6 6 6 6 5 4 3 3 3 2 1 0 0 0 0 0 0 0 0 0 0 0 0 0 0 0 0 0 0 0 0 0 0 0 0 0 0 0 0 0 0 0 0
9 8 7 8 7 5 3 3 1 1 1 0 0 0 0 0 0 0 0 0 0 0 0 0 0 0 0 0 0 0 0 0 0 0 0 0 0 0 0 0 0 0 0
12 10 9 9 8 6 4 3 1 0 0 0 0 0 0 0 0 0 0 0 0 0 0 0 0 0 0 0 0 0 0 0 0 0 0 0 0 0 0 0 0 0 0
16 13 11 9 8 7 5 3 1 0 0 0 0 0 0 0 0 0 0 0 0 0 0 0 0 0 0 0 0 0 0 0 0 0 0 0 0 0 0 0 0 0 0
17 15 12 9 8 7 5 3 2 1 0 0 0 0 0 0 0 0 0 0 0 0 0 0 0 0 0 0 0 0 0 0 0 0 0 0 0 0 0 0 0 0 0
16 15 12 9 8 7 5 4 3 2 1 0 0 0 0 0 0 0 0 0 0 0 0 0 0 0 0 0 0 0 0 0 0 0 0 0 0 0 0 0 0 0 0

GEFSSE_con_prob3kmehi_216.txt.gz
EHI
0 0 0 0 0 0 0 0 0 0 0 0 0 0 0 0 0 0 0 0 0 0 0 0 0 0 0 0 1 0 1 2 3 2 1 0 0 0 0 0 1 0 0
0 0 0 0 0 0 0 0 0 0 0 0 0 0 0 0 0 0 0 0 0 0 0 0 0 0 0 0 1 0 1 2 3 1 0 0 0 0 0 0 1 0 0
0 0 0 0 0 0 0 0 0 0 0 0 0 0 0 0 0 0 0 0 0 0 0 0 0 0 0 0 0 0 1 2 2 1 0 0 0 0 0 0 0 0 0
0 0 0 0 0 0 0 0 0 0 0 0 0 0 0 0 0 0 0 0 0 0 0 0 0 0 0 0 0 0 1 1 1 1 0 0 0 0 0 0 0 0 0
0 0 0 0 0 0 0 0 0 0 1 1 0 0 0 0 0 1 1 0 0 0 0 0 0 0 0 0 0 0 0 0 0 0 0 0 0 0 0 0 0 0 0
0 0 0 0 0 0 0 0 0 0 1 1 0 0 0 0 0 1 1 0 0 0 0 0 0 0 0 0 0 0 0 0 0 0 0 0 0 0 0 0 0 0 0
0 0 0 0 0 0 0 0 0 0 1 1 0 0 0 0 0 0 0 0 0 0 0 0 0 0 0 0 0 0 0 0 0 0 0 0 0 0 0 0 0 0 0
0 0 0 0 0 0 0 0 0 0 0 0 0 0 0 0 0 0 0 0 0 0 0 0 0 0 0 0 0 0 1 1 1 0 0 0 0 0 0 0 0 0 0
0 0 0 0 0 0 0 0 0 0 0 0 0 0 0 0 0 0 0 0 0 0 0 0 0 0 0 0 0 0 1 2 1 0 0 0 0 0 0 0 0 0 0
0 0 0 0 0 0 0 0 0 0 0 0 0 1 1 1 0 0 0 0 0 0 0 0 0 0 0 0 0 0 1 1 1 0 0 0 0 0 0 0 0 0 0
0 0 0 0 0 0 0 0 0 0 0 0 0 1 1 1 0 0 0 0 0 0 0 0 0 1 1 0 0 0 0 0 0 0 0 0 0 0 0 0 0 0 0
0 0 0 0 0 0 0 0 0 0 0 0 0 1 1 0 0 0 0 0 0 0 0 0 0 1 1 0 0 0 0 0 0 0 0 0 0 0 0 0 0 0 0
0 0 0 0 0 0 0 0 0 0 0 0 0 0 0 0 0 0 0 0 0 0 0 0 0 1 1 0 0 0 0 0 0 0 1 1 0 0 0 0 0 0 0
0 0 0 0 0 1 1 1 0 1 2 2 1 0 0 0 0 0 0 0 0 0 0 0 0 0 0 0 0 0 0 0 0 0 1 2 1 0 0 0 0 0 0
0 0 1 1 3 5 5 4 2 3 4 4 2 1 0 0 0 0 0 0 0 0 0 0 0 0 0 0 0 0 0 0 0 0 1 2 2 1 1 1 1 0 0
1 1 2 4 6 8 8 6 4 4 4 4 3 1 0 0 0 0 0 0 0 0 0 0 0 0 0 0 0 0 0 0 0 0 0 1 1 1 1 2 2 1 0
2 1 2 4 7 9 9 6 4 4 4 3 3 1 0 0 0 0 0 0 0 0 0 0 0 0 0 0 0 0 0 0 0 0 0 0 0 0 1 2 2 1 0
2 1 1 3 6 9 9 7 5 4 4 3 3 2 1 0 0 0 0 0 0 0 0 0 0 0 0 0 0 0 0 0 0 0 0 0 1 1 1 2 2 1 0
1 1 2 4 7 9 10 8 6 5 4 4 3 3 1 0 0 0 0 0 0 0 0 0 0 0 0 0 0 0 0 0 0 0 0 0 1 2 2 2 2 1 0
4 5 6 7 9 10 10 9 6 5 4 3 3 3 2 0 0 0 0 0 0 0 0 1 1 1 0 0 0 0 0 0 0 0 0 0 1 1 1 1 1 1 1
12 13 11 10 11 12 10 9 7 5 4 3 3 2 1 0 0 0 0 0 0 1 1 1 2 2 1 0 1 1 1 1 1 0 0 0 0 0 0 0 0 1 2
19 18 15 14 15 14 11 9 8 5 4 3 1 1 0 0 0 0 0 0 1 2 2 3 3 2 1 1 2 2 3 2 1 0 0 1 1 1 1 0 0 1 1
22 20 18 18 19 17 13 10 7 5 4 2 1 1 1 0 1 1 1 1 1 2 3 3 2 2 3 4 4 4 4 4 2 1 1 2 2 3 2 1 0 0 0
23 22 21 23 24 22 17 12 9 6 4 3 3 3 3 1 1 2 3 3 3 3 4 4 2 3 4 5 5 5 5 4 3 2 1 2 2 2 2 1 0 0 0
22 22 24 27 29 29 24 17 13 9 7 5 4 4 4 3 2 2 3 4 5 5 6 6 5 5 6 5 5 6 7 6 5 4 2 1 2 1 1 1 1 0 0
19 20 23 29 34 34 29 21 16 14 10 6 4 4 5 3 2 1 2 4 5 6 8 8 7 6 6 4 4 6 7 9 8 5 3 1 1 1 1 2 2 1 0